Regional Weather Roundup
Issued by NWS

Home | Current Version | Previous Version | Graphics & Text | Print | Product List | Glossary On
Versions: 1 2 3 4 5 6 7 8 9 10 11 12 13 14 15 16 17 18 19 20 21 22 23 24 25 26 27 28 29 30 31 32 33 34 35 36 37 38 39 40 41 42 43 44 45 46 47 48 49 50
000
ASUS45 KPSR 070000
RWRAZ

ARIZONA HOURLY REGIONAL WEATHER ROUNDUP
NATIONAL WEATHER SERVICE PHOENIX AZ
500 PM MST MON JUL 06 2015

NOTE: FAIR INDICATES FEW OR NO CLOUDS BELOW 12,000 FEET WITH NO
SIGNIFICANT WEATHER AND/OR OBSTRUCTIONS TO VISIBILITY.

AZZ001>003-036-070100-
NORTHWEST ARIZONA

CITY           SKY/WX    TMP DP  RH WIND       PRES   REMARKS
KINGMAN        LGT RAIN  77  63  61 E6        30.05F
6HR MIN TEMP:  74; 6HR MAX TEMP:  94; 6HR PCP:  0.01;

$$

AZZ004>008-015-016-018-070100-
NORTH CENTRAL ARIZONA

CITY           SKY/WX    TMP DP  RH WIND       PRES   REMARKS
GRAND CANYON   CLOUDY    70  50  49 NW10G21   30.26R
6HR MIN TEMP:  70; 6HR MAX TEMP:  78;

WILLIAMS       MOSUNNY   72  54  53 W9        30.33F
PRESCOTT       MOSUNNY   82  51  34 NW15      30.15F
6HR MIN TEMP:  80; 6HR MAX TEMP:  85;

FLAGSTAFF      NOT AVBL
PAYSON         PTSUNNY   84  50  30 W13G18    30.13F
PAGE           CLOUDY    84  47  27 NW8       30.07F
6HR MIN TEMP:  81; 6HR MAX TEMP:  88; 6HR PCP: TRACE;

$$

AZZ009>014-017-070100-
NORTHEAST ARIZONA

CITY           SKY/WX    TMP DP  RH WIND       PRES   REMARKS
WINSLOW        NOT AVBL
SAINT JOHNS    MOSUNNY   87  47  24 NW17      30.11F
6HR MIN TEMP:  79; 6HR MAX TEMP:  88;

WINDOW ROCK    PTSUNNY   68  52  56 NW12      30.23
6HR MIN TEMP:  68; 6HR MAX TEMP:  85; 6HR PCP:  0.01;

$$

AZZ023-070100-
GREATER PHOENIX AREA

CITY           SKY/WX    TMP DP  RH WIND       PRES   REMARKS
PHOENIX        MOSUNNY  103  55  20 W12       29.80F HX 101
6HR MIN TEMP:  92; 6HR MAX TEMP: 104;

GLENDALE       PTSUNNY  102  59  24 S14       29.81F HX 102
DEER VALLEY    SUNNY    100  56  23 W10       29.82F
6HR MIN TEMP:  90; 6HR MAX TEMP: 101;

SCOTTSDALE     SUNNY    100  58  24 W9        29.84F
6HR MIN TEMP:  91; 6HR MAX TEMP: 101;

CHANDLER       PTSUNNY  102  59  24 SW12G17   29.82F HX 102
$$

AZZ027-028-070100-
SOUTHWEST MARICOPA COUNTY AND PINAL COUNTY

CITY           SKY/WX    TMP DP  RH WIND       PRES   REMARKS
CASA GRANDE    MOSUNNY   97  63  32 SW5       29.84F
6HR MIN TEMP:  90; 6HR MAX TEMP:  99;

GILA BEND      PTSUNNY  104  59  22 NW10      29.77F THUNDER HX 104
$$

AZZ503-504-507>509-070100-
SOUTHEAST ARIZONA

CITY           SKY/WX    TMP DP  RH WIND       PRES   REMARKS
TUCSON         CLOUDY    94  60  32 NW14      29.97R
6HR MIN TEMP:  88; 6HR MAX TEMP:  96; 6HR PCP: TRACE;

RYAN FIELD     SUNNY     91  64  40 W13       29.96S
NOGALES        TSTM      73  64  73 S13G32    30.08R
6HR MIN TEMP:  73; 6HR MAX TEMP:  93; 6HR PCP:  0.13;

SIERRA VISTA   TSTM      70  61  73 SW29      30.13R
DOUGLAS        LGT RAIN  73  63  68 E6        30.04S
SAFFORD        MOSUNNY   96  56  26 W18G24    29.90F
6HR MIN TEMP:  88; 6HR MAX TEMP:  97;

$$

AZZ020-021-025-026-031-070100-
SOUTHWEST ARIZONA

CITY           SKY/WX    TMP DP  RH WIND       PRES   REMARKS
YUMA           SUNNY    105  58  21 S13G18    29.77F HX 105
6HR MIN TEMP:  97; 6HR MAX TEMP: 106;

$$

CAZ031-033-041-043-047-048-061-070100-
SOUTHERN CALIFORNIA

CITY           SKY/WX    TMP DP  RH WIND       PRES   REMARKS
DOWNTOWN L.A.  MOSUNNY   71  60  68 VRB3      29.96F
6HR MIN TEMP:  67; 6HR MAX TEMP:  75;

L.A. AIRPORT   CLOUDY    67  60  78 W13       29.98F
6HR MIN TEMP:  65; 6HR MAX TEMP:  70;

SAN DIEGO      CLOUDY    70  60  70 W10       30.00F
6HR MIN TEMP:  68; 6HR MAX TEMP:  71;

BURBANK        SUNNY     76  59  55 S10       29.95F
6HR MIN TEMP:  69; 6HR MAX TEMP:  80;

ONTARIO        MOSUNNY   84  58  40 W15G21    29.95F
6HR MIN TEMP:  72; 6HR MAX TEMP:  85;

RIVERSIDE        N/A    N/A N/A N/A MISG      29.94F
PALM SPRINGS   MOSUNNY  104  57  21 N8        29.81F HX 103
6HR MIN TEMP:  96; 6HR MAX TEMP: 106;

EL CENTRO NAS  MOSUNNY  106  49  14 E12       29.76F HX 103
6HR MIN TEMP:  93; 6HR MAX TEMP: 107;

IMPERIAL       SUNNY    105  50  15 E12       29.74F HX 102
6HR MIN TEMP:  94; 6HR MAX TEMP: 107;

BLYTHE         SUNNY    106  63  24 SE12      29.76F HX 109
6HR MIN TEMP:  98; 6HR MAX TEMP: 106;

$$

NVZ020-UTZ003-070100-
SOUTHERN NEVADA-UTAH

CITY           SKY/WX    TMP DP  RH WIND       PRES   REMARKS
LAS VEGAS      NOT AVBL
SALT LAKE CITY PTSUNNY   80  58  46 SE13      30.05S
6HR MIN TEMP:  74; 6HR MAX TEMP:  89; 6HR PCP: TRACE;

$$

NMZ009-TXZ055-070100-
NEW MEXICO-WEST TEXAS

CITY           SKY/WX    TMP DP  RH WIND       PRES   REMARKS
ALBUQUERQUE    CLOUDY    73  61  64 E20       30.09R
                                      6HR PCP:  0.69;

EL PASO        MOSUNNY   95  52  23 VRB7      29.92F
6HR MIN TEMP:  86; 6HR MAX TEMP:  97;

$$


........................KEY........................
SKY/WX - SKY CONDITION/WEATHER
TMP    - TEMPERATURE IN FAHRENHEIT
DP     - DEW POINT IN FAHRENHEIT
RH     - RELATIVE HUMIDITY IN PERCENT
WIND   - DIRECTION AND SPEED IN MILES PER HOUR (MPH)
VRB    - VARIABLE WIND DIRECTION
PRES   - MEAN SEA LEVEL PRESSURE IN INCHES OF MERCURY
         F - FALLING PRESSURE   R - RISING PRESSURE
         S - STEADY PRESSURE
VSB    - VISIBILITY IN MILES
HX     - HEAT INDEX IN FAHRENHEIT
WCI    - WIND CHILL INDEX IN FAHRENHEIT
TC     - TEMPERATURE IN CELSIUS WHICH IS ALSO KNOWN AS
         TEMPERATURE IN CENTIGRADE
AFB    - AIR FORCE BASE
         LUKE AFB IS LUKE AIR FORCE BASE
         DAVIS-MONTHAN IS DAVIS-MONTHAN AIR FORCE BASE
NAS    - NAVAL AIR STATION
         EL CENTRO NAS IS EL CENTRO NAVAL AIR STATION
N/A    - NOT AVAILABLE



USA.gov is the U.S. government's official web portal to all federal, state and local government web resources and services.